Weather History for KAXS - July, 2012

Change the Weather History Date:

Sunday, July 22, 2012

  Actual Average (KLTS) Record (KLTS)
Temperature  
Mean Temperature 91 °F -  
Max Temperature 104 °F 96 °F 105 °F (1998)
Min Temperature 78 °F 71 °F 69 °F (1999)
Cooling Degree Days 26    
Growing Degree Days 41 (Base 50)    
Moisture  
Dew Point 56 °F    
Average Humidity 31    
Maximum Humidity 54    
Minimum Humidity 17    
Precipitation  
Precipitation 0.00 in - - ()
Sea Level Pressure  
Sea Level Pressure 29.99 in    
Wind  
Wind Speed 10 mph (East)    
Max Wind Speed 18 mph    
Max Gust Speed 24 mph    
Visibility 10 miles    
Events      
Averages and records for this station are not official NWS values.
T = Trace of Precipitation, MM = Missing Value Source: NWS Daily Summary

Daily Weather History Graph

Daily Weather History Graph

Search for Another Location

Airport or City:

Trip Planner

Search our weather history database for the weather conditions in past years. The results will help you decide how hot, cold, wet, or windy it might be!

Date:

Astronomy

Jul. 22, 2012 Rise Set
Actual Time 6:40 AM CDT 8:46 PM CDT
Civil Twilight 6:12 AM CDT 9:15 PM CDT
Nautical Twilight 5:37 AM CDT 9:49 PM CDT
Astronomical Twilight 5:00 AM CDT 10:26 PM CDT
Moon 10:15 AM CDT (7/22) 10:44 PM CDT (7/22)
Length of Visible Light 15h 02m
Length of Day
14h 06m
Waxing Crescent, 13% of the Moon is Illuminated
Jul 22
Waxing Crescent
Jul 26
First Quarter
Aug 1
Full
Aug 9
Last Quarter
Aug 17
New

Hourly Weather History & Observations

Time (CDT) Temp. Heat Index Dew Point Humidity Pressure Visibility Wind Dir Wind Speed Gust Speed Precip Events Conditions
12:15 AM 86.0 °F - 48.2 °F 27% 29.97 in 10.0 mi East 9.2 mph - N/A   Clear
12:35 AM 86.0 °F - 50.0 °F 29% 29.98 in 10.0 mi East 8.1 mph - N/A   Clear
1:15 AM 84.2 °F - 51.8 °F 33% 29.98 in 10.0 mi East 8.1 mph - N/A   Clear
1:55 AM 86.0 °F 84.2 °F 53.6 °F 33% 29.98 in 10.0 mi East 10.4 mph - N/A   Clear
2:15 AM 86.0 °F - 51.8 °F 31% 29.98 in 10.0 mi East 6.9 mph - N/A   Clear
2:35 AM 82.4 °F - 51.8 °F 35% 29.97 in 10.0 mi ENE 8.1 mph - N/A   Clear
3:15 AM 84.2 °F - 51.8 °F 33% 29.97 in 10.0 mi East 8.1 mph - N/A   Clear
3:35 AM 82.4 °F - 51.8 °F 35% 29.97 in 10.0 mi ENE 8.1 mph - N/A   Clear
3:55 AM 82.4 °F - 51.8 °F 35% 29.96 in 10.0 mi ENE 8.1 mph - N/A   Clear
4:15 AM 82.4 °F 81.4 °F 53.6 °F 37% 29.97 in 10.0 mi East 9.2 mph - N/A   Clear
4:35 AM 80.6 °F 80.3 °F 53.6 °F 39% 29.97 in 10.0 mi ENE 8.1 mph - N/A   Clear
4:55 AM 82.4 °F 81.7 °F 55.4 °F 39% 29.97 in 10.0 mi ENE 8.1 mph - N/A   Clear
5:15 AM 80.6 °F 80.5 °F 55.4 °F 42% 29.97 in 10.0 mi East 9.2 mph - N/A   Clear
5:35 AM 80.6 °F 80.5 °F 55.4 °F 42% 29.97 in 10.0 mi ENE 8.1 mph - N/A   Clear
5:55 AM 80.6 °F 80.5 °F 55.4 °F 42% 29.97 in 10.0 mi ENE 8.1 mph - N/A   Clear
6:35 AM 78.8 °F - 59.0 °F 51% 29.98 in 10.0 mi East 8.1 mph - N/A   Clear
6:55 AM 78.8 °F - 59.0 °F 51% 29.99 in 10.0 mi East 8.1 mph - N/A   Clear
7:15 AM 78.8 °F - 59.0 °F 51% 29.99 in 10.0 mi ENE 6.9 mph - N/A   Clear
7:35 AM 78.8 °F - 60.8 °F 54% 29.99 in 10.0 mi East 8.1 mph - N/A   Clear
7:55 AM 80.6 °F 81.5 °F 60.8 °F 51% 30.00 in 10.0 mi East 9.2 mph - N/A   Clear
8:15 AM 82.4 °F 83.4 °F 62.6 °F 51% 30.00 in 10.0 mi East 9.2 mph - N/A   Clear
8:35 AM 82.4 °F 83.4 °F 62.6 °F 51% 30.01 in 10.0 mi East 12.7 mph - N/A   Clear
8:55 AM 86.0 °F 86.6 °F 62.6 °F 45% 30.02 in 10.0 mi East 11.5 mph - N/A   Clear
9:15 AM 87.8 °F 89.4 °F 64.4 °F 46% 30.02 in 10.0 mi East 11.5 mph - N/A   Clear
9:35 AM 89.6 °F 90.1 °F 62.6 °F 40% 30.03 in 10.0 mi East 11.5 mph - N/A   Clear
10:15 AM 93.2 °F 94.1 °F 62.6 °F 36% 30.03 in 10.0 mi East 13.8 mph - N/A   Clear
10:35 AM 95.0 °F 96.0 °F 62.6 °F 34% 30.02 in 10.0 mi East 11.5 mph - N/A   Clear
10:55 AM 96.8 °F 97.1 °F 60.8 °F 30% 30.02 in 10.0 mi East 12.7 mph 18.4 mph N/A   Clear
11:15 AM 96.8 °F 97.1 °F 60.8 °F 30% 30.02 in 10.0 mi East 10.4 mph - N/A   Clear
11:35 AM 98.6 °F 98.5 °F 59.0 °F 27% 30.03 in 10.0 mi East 15.0 mph 21.9 mph N/A   Clear
11:55 AM 98.6 °F 98.5 °F 59.0 °F 27% 30.02 in 10.0 mi East 12.7 mph 21.9 mph N/A   Clear
12:15 PM 100.4 °F 98.4 °F 53.6 °F 21% 30.02 in 10.0 mi ESE 16.1 mph 21.9 mph N/A   Clear
12:35 PM 100.4 °F 98.4 °F 53.6 °F 21% 30.02 in 10.0 mi ESE 17.3 mph 23.0 mph N/A   Clear
12:55 PM 100.4 °F 98.4 °F 53.6 °F 21% 30.02 in 10.0 mi ESE 15.0 mph 20.7 mph N/A   Clear
1:15 PM 102.2 °F - 51.8 °F 18% 30.01 in 10.0 mi ESE 15.0 mph 20.7 mph N/A   Clear
1:35 PM 102.2 °F 100.4 °F 53.6 °F 20% 30.00 in 10.0 mi ESE 11.5 mph 19.6 mph N/A   Clear
1:55 PM 100.4 °F 98.4 °F 53.6 °F 21% 30.00 in 10.0 mi East 15.0 mph 18.4 mph N/A   Clear
2:15 PM 102.2 °F 100.9 °F 55.4 °F 21% 30.00 in 10.0 mi ESE 18.4 mph 24.2 mph N/A   Clear
2:35 PM 102.2 °F 100.9 °F 55.4 °F 21% 29.99 in 10.0 mi ESE 9.2 mph 23.0 mph N/A   Clear
2:55 PM 104.0 °F 102.9 °F 55.4 °F 20% 29.99 in 10.0 mi SE 17.3 mph 24.2 mph N/A   Clear
3:15 PM 104.0 °F 102.9 °F 55.4 °F 20% 29.98 in 10.0 mi ESE 13.8 mph 23.0 mph N/A   Clear
3:35 PM 102.2 °F 100.9 °F 55.4 °F 21% 29.97 in 10.0 mi ESE 10.4 mph 21.9 mph N/A   Clear
4:15 PM 104.0 °F - 51.8 °F 17% 29.96 in 10.0 mi ESE 13.8 mph 21.9 mph N/A   Clear
4:35 PM 102.2 °F 100.4 °F 53.6 °F 20% 29.95 in 10.0 mi SSE 11.5 mph 18.4 mph N/A   Clear
4:55 PM 102.2 °F 100.4 °F 53.6 °F 20% 29.96 in 10.0 mi SE 9.2 mph 18.4 mph N/A   Clear
5:15 PM 102.2 °F - 51.8 °F 18% 29.95 in 10.0 mi ESE 9.2 mph - N/A   Clear
5:35 PM 104.0 °F - 51.8 °F 17% 29.95 in 10.0 mi SE 12.7 mph 19.6 mph N/A   Clear
5:55 PM 102.2 °F 100.4 °F 53.6 °F 20% 29.95 in 10.0 mi East 8.1 mph 20.7 mph N/A   Clear
6:15 PM 102.2 °F - 51.8 °F 18% 29.95 in 10.0 mi East 12.7 mph 17.3 mph N/A   Clear
6:35 PM 102.2 °F - 51.8 °F 18% 29.95 in 10.0 mi SE 9.2 mph 18.4 mph N/A   Clear
7:15 PM 100.4 °F 98.4 °F 53.6 °F 21% 29.95 in 10.0 mi ESE 15.0 mph - N/A   Clear
7:35 PM 100.4 °F 98.8 °F 55.4 °F 22% 29.95 in 10.0 mi ESE 11.5 mph - N/A   Clear
7:55 PM 98.6 °F 97.2 °F 55.4 °F 24% 29.96 in 10.0 mi SE 15.0 mph 19.6 mph N/A   Clear
8:15 PM 98.6 °F 97.2 °F 55.4 °F 24% 29.96 in 10.0 mi ESE 12.7 mph 17.3 mph N/A   Clear
8:35 PM 96.8 °F 95.8 °F 57.2 °F 27% 29.97 in 10.0 mi ESE 13.8 mph - N/A   Clear
8:55 PM 96.8 °F 95.8 °F 57.2 °F 27% 29.97 in 10.0 mi ESE 10.4 mph - N/A   Clear
9:15 PM 95.0 °F 94.4 °F 59.0 °F 30% 29.98 in 10.0 mi ESE 9.2 mph - N/A   Clear
9:35 PM 91.4 °F 90.7 °F 59.0 °F 34% 29.99 in 10.0 mi ESE 10.4 mph - N/A   Clear
9:55 PM 91.4 °F 90.7 °F 59.0 °F 34% 29.99 in 10.0 mi ESE 10.4 mph - N/A   Clear
10:15 PM 91.4 °F 90.7 °F 59.0 °F 34% 30.00 in 10.0 mi ESE 11.5 mph - N/A   Clear
10:35 PM 91.4 °F 90.7 °F 59.0 °F 34% 30.01 in 10.0 mi ESE 12.7 mph - N/A   Clear
10:55 PM 91.4 °F 90.7 °F 59.0 °F 34% 30.02 in 10.0 mi East 11.5 mph - N/A   Clear
11:15 PM 89.6 °F 88.9 °F 59.0 °F 36% 30.01 in 10.0 mi ESE 11.5 mph - N/A   Clear
11:35 PM 89.6 °F 88.9 °F 59.0 °F 36% 30.01 in 10.0 mi ESE 12.7 mph - N/A   Clear
11:55 PM 89.6 °F 88.9 °F 59.0 °F 36% 30.02 in 10.0 mi ESE 15.0 mph - N/A   Clear